Temperature
10 10 10 10 10 11 11 11 11 11 11 11 11 12 12 12 12 12 12 12 12 12 12 12 12 12 12 12 12 12 12 12 12 12 12 11 11 11 11 11 11 11 11
10 10 10 10 10 10 10 10 11 11 11 11 11 11 11 12 12 12 12 12 12 12 12 12 12 12 12 12 12 12 12 12 11 11 11 11 11 11 11 11 11 11 11
9 9 9 9 9 9 10 10 10 10 10 10 11 11 11 11 11 12 12 12 12 12 12 11 11 12 12 12 12 12 12 11 11 11 11 11 11 11 11 11 11 11 10
9 9 9 9 9 9 9 9 10 10 10 10 10 11 11 11 11 11 11 11 11 11 11 11 11 11 11 11 11 11 11 11 11 11 11 11 11 11 11 11 10 10 10
8 8 8 8 9 9 9 9 9 9 9 10 10 10 10 10 10 11 11 11 11 11 11 11 11 11 11 11 11 11 11 11 11 11 11 11 11 11 10 10 10 10 10
8 8 8 8 8 8 8 8 9 9 9 9 9 10 10 10 10 10 10 10 10 11 11 11 11 11 11 11 11 11 11 11 11 11 11 11 10 10 10 10 10 10 10
7 7 7 7 7 8 8 8 8 8 8 9 9 9 9 9 9 10 10 10 10 10 10 10 10 10 10 10 10 10 10 10 10 10 10 10 10 10 10 10 10 10 10
7 7 7 7 7 7 7 7 8 8 8 8 8 8 8 9 9 9 9 10 10 10 10 10 10 10 10 10 10 10 10 10 10 10 10 10 10 10 10 10 10 10 10
6 6 7 7 7 7 7 7 7 7 8 8 8 8 8 8 8 9 9 9 9 10 10 10 10 10 10 10 10 10 10 10 10 10 10 10 10 10 10 10 10 10 10
6 6 6 6 6 6 6 7 7 7 7 7 7 8 8 8 8 8 9 9 9 9 9 9 9 9 9 9 9 9 9 9 9 9 10 10 10 10 10 10 10 10 9
5 5 5 5 6 6 6 6 6 6 7 7 7 7 8 8 8 8 8 8 9 9 9 9 9 9 9 9 9 9 9 9 9 9 9 9 9 9 9 9 9 9 9
5 5 5 5 5 5 6 6 6 6 6 6 7 7 7 8 8 8 8 8 8 9 9 9 9 9 9 9 9 9 9 9 9 9 9 9 9 9 9 9 9 9 9
4 4 5 5 5 5 5 5 5 6 6 6 6 7 7 7 8 8 8 8 7 8 8 9 9 9 9 9 9 9 9 9 8 8 8 8 9 9 9 8 9 9 8
4 4 4 4 4 5 5 5 5 5 5 6 6 6 6 7 7 7 8 8 7 7 8 8 8 8 8 8 8 8 8 8 8 8 8 8 8 8 8 8 8 8 8
3 3 4 4 4 4 4 4 4 5 5 5 5 6 6 6 7 7 7 7 7 7 7 8 8 8 8 8 8 8 8 8 8 8 8 8 8 8 8 8 8 8 8
3 3 3 3 4 4 4 4 4 4 4 5 5 5 5 6 6 6 7 7 7 7 7 7 8 8 8 8 7 7 7 7 7 8 7 7 7 7 7 7 7 7 7
2 2 3 3 3 3 3 4 4 4 4 4 4 5 5 5 6 6 6 7 7 7 7 7 7 7 7 7 7 7 7 7 7 7 7 7 7 7 7 7 7 7 7
1 2 2 2 2 3 3 3 3 3 4 4 4 4 5 5 5 6 6 6 6 7 7 7 7 7 7 7 7 6 6 6 7 7 7 7 7 7 6 6 6 7 6
1 1 1 2 2 2 2 2 3 3 3 3 3 4 4 4 5 5 5 6 6 6 6 6 6 6 6 6 6 6 6 6 6 6 6 6 6 6 6 6 6 6 6
0 0 1 1 1 1 2 2 2 2 2 3 3 3 3 4 4 5 5 5 5 5 5 6 6 6 6 6 5 5 5 6 5 6 6 6 6 6 6 6 6 6 5
-1 -0 0 1 1 1 1 1 1 2 2 2 2 3 3 3 4 4 4 4 5 5 5 5 5 5 5 5 5 5 5 5 5 5 5 5 5 5 5 5 5 5 5
-1 -1 -0 -0 0 0 1 1 1 1 1 1 2 2 2 3 3 3 4 4 4 4 4 4 4 4 5 5 4 4 4 4 4 4 5 5 5 5 5 5 5 5 5
-1 -1 -1 -1 -0 -0 -0 0 0 0 0 1 1 1 2 2 2 3 3 3 3 3 4 4 4 4 4 4 4 4 4 4 4 4 4 4 4 4 5 5 5 4 4
-2 -2 -1 -1 -1 -1 -1 -1 -1 -1 -0 0 0 1 1 1 2 2 2 2 2 3 3 3 3 3 3 3 3 3 3 3 3 3 3 3 4 4 4 4 4 4 4
-3 -3 -2 -2 -2 -1 -1 -1 -1 -1 -1 -1 -0 -0 0 1 1 1 1 1 2 2 2 2 2 3 3 3 3 2 2 2 2 2 3 2 3 3 3 3 3 3 3
-4 -3 -3 -3 -2 -2 -2 -2 -2 -2 -2 -1 -1 -1 -1 -1 -0 0 0 1 1 1 1 2 2 2 2 2 2 2 2 2 2 1 2 2 2 2 2 3 3 3 2
Wind_Speed
2 2 2 2 1 1 2 2 2 2 2 3 5 6 5 5 6 5 5 6 7 7 8 8 8 8 9 9 9 9 9 9 10 10 9 9 9 9 9 9 9 9 9
2 2 1 1 1 1 2 3 2 2 2 3 3 5 5 5 5 5 5 5 7 7 7 8 8 8 8 8 8 9 9 9 8 9 9 8 8 8 8 8 8 8 8
2 2 2 1 2 2 2 2 2 3 2 2 2 3 4 5 5 5 5 5 6 6 7 7 7 7 7 7 7 8 8 8 7 8 8 8 8 7 8 7 7 7 7
3 3 2 2 2 2 2 1 1 1 2 2 1 1 2 4 5 5 5 5 6 6 6 7 7 7 7 7 6 7 7 7 7 6 7 7 7 7 7 6 6 5 6
3 2 2 2 3 2 1 1 1 1 2 2 1 1 1 2 3 4 4 5 6 6 6 7 7 6 6 6 5 6 7 6 6 6 6 7 7 6 6 5 6 6 6
3 2 2 2 3 2 1 2 2 1 2 2 2 1 0 1 2 2 4 4 5 5 6 6 6 6 6 6 5 5 6 5 5 6 6 6 6 6 5 5 5 6 6
3 2 1 2 2 3 3 3 1 2 2 2 2 1 1 0 2 2 3 3 4 5 6 6 6 6 5 6 5 5 5 5 5 5 5 6 6 6 5 5 6 6 5
3 2 2 2 2 2 3 3 3 2 2 2 2 2 1 1 1 2 2 3 3 4 5 6 6 6 6 6 5 5 5 5 5 5 5 5 5 6 5 6 6 6 5
3 3 3 2 3 3 4 4 5 3 4 3 3 3 3 4 2 2 3 3 4 3 4 5 6 6 7 7 6 6 6 5 5 5 5 5 5 5 6 6 6 6 6
3 3 3 3 3 3 4 5 4 3 5 4 3 2 2 2 3 2 2 2 3 4 4 5 6 6 7 7 7 6 7 6 6 6 5 5 4 5 6 6 6 6 5
4 4 4 3 3 3 4 5 4 4 4 5 4 2 1 1 1 3 4 3 3 4 5 5 6 7 8 8 8 8 8 7 7 7 7 6 6 5 5 6 7 7 6
3 4 4 4 4 3 4 5 5 6 5 5 4 4 3 3 3 3 4 4 4 3 4 4 6 7 8 9 9 9 9 8 8 6 7 6 6 6 6 5 7 7 6
4 5 5 5 4 5 5 5 5 6 6 6 6 5 5 5 3 3 3 3 3 2 2 3 6 8 9 10 10 10 10 9 8 8 7 6 6 6 6 5 6 7 7
5 6 6 6 6 6 6 5 5 6 6 6 7 6 5 5 4 4 4 4 3 2 3 4 3 8 9 10 11 12 10 10 10 9 8 7 7 6 6 6 7 6 7
5 6 6 6 6 6 6 6 6 7 6 7 7 7 6 5 5 5 5 5 5 5 5 4 4 5 9 10 11 11 11 11 11 10 10 9 8 7 7 7 8 7 7
5 5 5 6 6 6 7 7 6 7 7 7 6 7 7 5 5 5 5 5 4 4 5 4 4 4 7 8 11 11 10 11 11 11 11 10 10 9 8 8 8 8 7
5 5 5 5 5 6 6 7 7 7 8 7 6 7 7 6 6 5 5 5 5 4 5 4 3 3 5 6 7 8 9 9 10 12 12 11 11 10 10 9 9 9 8
5 5 5 5 5 5 6 7 7 7 8 8 7 7 7 6 6 6 6 6 5 5 5 5 4 4 5 6 6 5 6 8 9 11 12 12 12 11 10 10 10 10 9
5 4 4 5 5 5 6 6 7 7 8 8 7 7 6 6 6 5 5 6 5 4 4 5 4 4 3 3 4 3 3 4 6 8 10 11 11 11 11 11 11 11 10
4 4 4 4 5 5 5 6 6 6 6 7 6 6 7 7 8 7 6 6 5 5 4 5 4 4 4 3 4 4 3 3 3 5 7 9 10 10 11 12 12 12 11
5 4 4 4 4 4 4 5 5 5 6 6 5 5 5 6 8 7 6 5 5 5 5 5 5 4 4 5 6 4 5 3 3 3 3 4 6 7 9 11 12 13 12
4 4 4 4 4 4 6 7 6 5 5 5 5 4 5 5 6 7 7 8 8 7 7 7 6 7 8 6 5 5 4 4 4 3 3 4 4 5 8 9 12 13 13
4 4 4 4 4 5 6 7 8 5 4 4 4 4 4 5 5 5 5 6 6 7 8 7 8 8 7 7 8 7 7 6 6 4 3 4 4 5 7 9 12 13 13
4 4 4 4 4 5 6 7 7 5 4 4 4 5 5 5 5 5 4 5 5 5 6 6 7 7 7 6 7 7 7 5 2 2 3 4 4 5 4 7 11 12 13
4 4 4 4 4 5 6 6 6 3 4 4 4 4 5 5 7 7 6 6 5 5 5 6 7 7 8 8 6 4 4 4 5 4 3 3 3 3 3 3 7 10 11
4 4 4 3 3 4 5 6 6 3 4 4 4 4 6 6 7 7 6 6 6 5 3 3 3 3 4 5 5 5 6 6 4 3 4 4 2 1 1 2 3 5 6
Wind_Direction
104 109 107 115 117 139 146 134 132 91 93 109 119 124 124 119 114 110 112 120 132 136 134 134 134 129 124 123 127 124 118 117 118 115 113 109 104 100 100 100 98 95 93
132 131 137 139 142 163 177 169 160 138 134 123 122 133 138 135 128 124 127 130 132 138 140 135 129 130 129 126 125 129 125 118 119 119 114 113 111 107 106 104 102 98 95
160 159 167 186 195 188 176 157 131 127 115 113 110 135 141 144 142 139 135 135 137 141 142 138 131 126 124 124 126 130 129 126 121 124 122 117 114 112 110 109 107 102 96
172 174 182 203 195 178 156 150 123 126 120 124 119 137 143 147 150 151 145 143 140 141 144 143 138 131 128 123 121 133 137 133 129 127 136 132 125 117 116 119 118 110 103
179 187 195 203 183 167 170 162 157 144 146 138 142 119 153 158 158 161 157 156 152 148 148 150 147 144 139 135 131 132 137 139 140 143 141 143 137 131 124 120 118 119 115
187 191 202 200 179 169 189 173 169 163 164 159 137 103 191 181 161 170 171 167 165 162 161 157 154 157 155 154 150 147 142 143 147 150 146 146 146 141 135 132 127 123 119
194 180 199 197 193 188 197 177 164 159 161 146 118 86 5 120 165 182 176 171 175 175 172 169 168 168 170 171 169 165 163 162 160 164 164 156 156 153 151 147 142 133 128
206 190 182 197 207 197 196 182 157 168 196 178 161 147 162 242 234 207 188 187 185 184 183 184 183 184 183 180 187 187 182 180 181 179 174 176 174 174 168 159 150 146 139
219 210 211 207 209 197 203 199 181 180 191 213 202 174 174 201 218 225 206 202 195 191 194 199 194 191 192 188 192 196 196 196 197 195 192 188 189 192 184 171 166 159 149
238 215 217 216 209 205 207 207 198 202 187 201 223 232 226 181 176 200 235 222 211 205 202 205 206 202 194 190 195 197 198 203 201 196 197 197 198 194 188 178 172 167 163
255 226 217 222 218 220 217 211 206 209 203 207 210 215 220 227 196 177 205 221 227 221 210 207 202 203 200 195 194 198 199 201 202 205 205 206 202 196 195 193 183 179 176
254 244 225 228 228 228 229 221 211 212 217 222 222 218 205 198 202 188 194 203 220 234 218 209 203 205 206 203 201 202 202 202 201 205 208 208 205 203 202 199 191 188 189
252 240 239 232 234 234 238 230 217 219 217 221 224 226 224 223 211 204 191 200 221 245 234 226 214 207 208 206 206 205 205 203 203 206 211 212 213 209 202 207 204 199 197
245 246 242 237 240 235 238 230 225 226 223 225 231 230 230 227 218 215 193 184 201 237 239 236 224 209 209 207 208 205 206 207 209 209 212 211 211 212 210 217 209 205 203
260 254 250 235 238 235 235 228 225 227 227 227 229 231 230 229 220 221 206 193 193 213 229 227 223 209 209 206 207 205 207 211 210 209 208 208 208 211 211 217 211 208 209
266 254 249 236 234 236 236 228 230 231 228 231 230 231 232 231 224 220 210 207 209 210 231 231 230 215 199 206 211 207 209 211 211 212 210 208 208 209 211 215 216 211 213
263 252 252 241 234 233 233 229 230 231 231 233 233 231 234 229 224 224 216 210 214 215 229 247 240 210 193 195 203 208 211 210 212 216 213 211 208 209 212 215 216 212 215
268 255 254 247 244 244 237 229 233 236 233 234 234 233 237 236 228 224 219 217 218 218 216 230 232 207 209 197 195 198 209 213 215 219 216 213 211 212 215 219 217 212 212
274 267 257 248 244 247 246 240 234 234 234 234 232 233 234 233 231 231 225 222 223 227 218 218 222 208 208 191 188 201 201 210 219 219 220 217 216 217 219 221 220 213 214
268 263 259 257 251 255 257 253 246 239 234 236 233 231 231 230 228 224 225 225 222 221 217 214 215 203 201 188 183 195 209 222 229 221 219 219 219 221 222 221 219 216 217
272 269 261 268 263 255 263 262 254 246 234 233 235 231 232 235 234 225 225 219 215 215 212 217 214 214 209 195 203 199 210 217 241 215 212 225 220 224 224 222 221 220 219
276 271 260 261 260 262 282 283 274 251 243 235 238 241 243 242 241 240 238 231 223 219 216 217 222 218 218 209 205 204 204 211 237 205 206 243 219 229 226 223 224 222 222
287 282 266 256 253 267 284 286 284 266 253 247 247 248 255 255 244 233 235 236 237 236 228 222 220 223 219 211 204 207 212 218 234 209 200 241 236 241 234 232 227 225 224
281 283 281 269 263 275 285 280 278 262 253 253 251 248 248 253 245 230 223 231 235 234 231 228 223 224 227 221 215 217 216 223 245 219 196 233 234 239 238 233 227 223 223
287 287 281 274 271 282 291 287 280 251 254 261 260 257 253 251 261 242 227 229 236 244 250 239 236 231 230 225 208 198 199 207 238 233 210 215 224 241 240 235 222 217 221
290 299 297 291 275 278 297 296 282 245 250 259 263 260 258 258 259 244 229 222 230 238 231 240 244 243 231 221 213 213 212 214 223 228 206 196 199 180 242 238 216 216 222
Height
1539 1540 1540 1542 1543 1544 1544 1545 1547 1548 1548 1549 1550 1551 1552 1553 1553 1554 1554 1555 1556 1556 1557 1557 1558 1559 1559 1560 1560 1561 1561 1561 1561 1561 1561 1562 1562 1562 1562 1561 1561 1561 1561
1537 1538 1539 1540 1541 1542 1543 1544 1545 1546 1547 1548 1549 1550 1551 1552 1552 1553 1554 1554 1555 1556 1556 1557 1558 1558 1559 1560 1560 1560 1561 1561 1561 1562 1562 1562 1562 1562 1562 1562 1562 1562 1562
1535 1536 1537 1538 1539 1540 1541 1542 1543 1545 1546 1547 1548 1549 1549 1550 1551 1552 1553 1553 1554 1555 1556 1556 1557 1558 1559 1559 1560 1560 1561 1561 1562 1562 1562 1562 1563 1563 1563 1562 1562 1562 1562
1532 1533 1534 1535 1537 1538 1539 1540 1541 1542 1543 1545 1546 1547 1548 1549 1550 1551 1552 1552 1553 1554 1555 1556 1556 1557 1558 1558 1559 1560 1560 1561 1561 1562 1562 1562 1563 1563 1563 1563 1563 1563 1562
1529 1531 1532 1533 1534 1535 1537 1537 1539 1540 1541 1542 1544 1545 1546 1547 1548 1549 1550 1551 1552 1553 1553 1555 1555 1556 1557 1557 1558 1559 1559 1560 1560 1561 1561 1562 1562 1562 1563 1563 1563 1562 1562
1526 1528 1529 1530 1531 1532 1534 1535 1536 1538 1539 1540 1542 1543 1544 1545 1547 1548 1549 1550 1550 1551 1552 1553 1554 1555 1556 1556 1557 1558 1558 1559 1560 1560 1561 1561 1561 1561 1562 1562 1562 1562 1562
1523 1524 1525 1527 1528 1529 1530 1532 1533 1535 1536 1538 1540 1541 1542 1543 1544 1545 1546 1548 1548 1549 1551 1552 1552 1553 1554 1555 1556 1557 1557 1558 1558 1559 1559 1560 1560 1560 1560 1561 1561 1561 1561
1519 1520 1521 1523 1524 1526 1527 1528 1530 1531 1533 1535 1537 1538 1539 1542 1541 1543 1544 1545 1546 1547 1548 1550 1551 1552 1552 1553 1554 1555 1556 1556 1557 1557 1558 1558 1558 1559 1559 1559 1559 1559 1560
1515 1516 1518 1519 1520 1522 1523 1524 1526 1528 1529 1532 1534 1535 1536 1536 1538 1539 1540 1542 1543 1545 1546 1547 1548 1549 1550 1551 1552 1553 1554 1554 1555 1555 1556 1556 1556 1556 1557 1557 1557 1558 1558
1510 1512 1513 1515 1516 1518 1519 1520 1523 1524 1526 1527 1530 1532 1533 1533 1535 1535 1537 1539 1540 1541 1543 1544 1545 1546 1547 1548 1549 1550 1551 1552 1552 1553 1553 1554 1554 1554 1554 1555 1555 1555 1556
1506 1507 1509 1511 1512 1513 1515 1516 1518 1520 1522 1523 1525 1527 1528 1530 1531 1531 1532 1534 1536 1538 1539 1541 1542 1543 1544 1546 1547 1547 1548 1549 1550 1550 1551 1551 1551 1552 1552 1552 1553 1553 1554
1501 1502 1504 1506 1507 1509 1510 1511 1513 1515 1517 1519 1521 1522 1524 1525 1526 1528 1528 1530 1532 1533 1535 1537 1538 1539 1541 1542 1543 1544 1545 1546 1547 1547 1548 1548 1549 1549 1550 1550 1550 1551 1551
1496 1498 1499 1501 1502 1504 1505 1507 1508 1510 1512 1514 1515 1517 1519 1521 1523 1524 1525 1526 1528 1529 1531 1532 1534 1536 1537 1539 1540 1541 1542 1543 1543 1544 1545 1545 1546 1546 1546 1547 1547 1548 1548
1491 1493 1494 1496 1497 1499 1501 1502 1504 1505 1507 1508 1510 1512 1514 1516 1518 1520 1521 1522 1523 1525 1526 1527 1529 1531 1533 1534 1536 1537 1538 1539 1540 1540 1541 1542 1542 1543 1543 1544 1544 1545 1545
1486 1487 1489 1490 1492 1494 1495 1497 1498 1500 1501 1503 1505 1507 1509 1510 1512 1514 1516 1518 1520 1519 1520 1522 1524 1526 1528 1530 1531 1532 1534 1535 1536 1536 1537 1538 1539 1539 1540 1540 1541 1541 1542
1481 1482 1483 1485 1486 1488 1490 1491 1492 1494 1495 1497 1499 1501 1503 1504 1506 1508 1510 1512 1514 1515 1515 1516 1518 1520 1522 1525 1527 1528 1529 1530 1531 1532 1533 1533 1534 1535 1536 1537 1537 1538 1538
1476 1477 1478 1479 1480 1482 1483 1485 1486 1488 1489 1491 1493 1494 1496 1498 1500 1502 1504 1506 1508 1510 1510 1511 1513 1515 1517 1519 1521 1523 1524 1525 1526 1527 1528 1529 1530 1530 1531 1532 1533 1533 1534
1471 1471 1472 1473 1474 1475 1477 1478 1480 1481 1482 1484 1486 1488 1490 1492 1494 1496 1498 1500 1501 1503 1505 1505 1507 1510 1511 1514 1515 1517 1519 1520 1521 1522 1523 1524 1525 1525 1526 1527 1528 1529 1529
1465 1466 1467 1467 1469 1470 1471 1472 1473 1475 1476 1478 1479 1481 1483 1485 1487 1489 1491 1493 1495 1497 1499 1500 1501 1504 1506 1508 1510 1511 1513 1515 1516 1517 1518 1519 1520 1520 1521 1522 1523 1524 1524
1460 1460 1461 1462 1463 1464 1465 1466 1468 1469 1470 1472 1473 1475 1477 1479 1480 1482 1484 1486 1489 1491 1492 1494 1496 1497 1500 1502 1504 1505 1507 1509 1510 1511 1512 1513 1514 1515 1516 1517 1517 1518 1519
1455 1455 1455 1457 1458 1459 1460 1461 1462 1463 1464 1466 1467 1469 1471 1473 1474 1476 1478 1480 1482 1484 1486 1488 1489 1491 1493 1496 1497 1499 1501 1502 1504 1505 1506 1507 1508 1509 1510 1511 1512 1512 1514
1450 1450 1450 1451 1452 1453 1454 1456 1457 1458 1458 1459 1461 1462 1465 1466 1468 1470 1472 1474 1476 1478 1479 1481 1483 1484 1486 1489 1492 1493 1495 1496 1496 1499 1500 1501 1502 1503 1504 1505 1506 1507 1508
1445 1444 1445 1446 1446 1447 1449 1450 1452 1452 1453 1454 1455 1456 1458 1460 1462 1464 1465 1467 1470 1472 1474 1476 1477 1478 1481 1483 1485 1486 1488 1489 1490 1492 1494 1493 1495 1495 1497 1498 1499 1501 1502
1440 1440 1440 1441 1441 1442 1444 1445 1446 1447 1448 1448 1449 1450 1452 1454 1456 1458 1459 1461 1463 1465 1467 1469 1471 1473 1475 1477 1479 1480 1482 1483 1484 1486 1487 1487 1487 1489 1491 1492 1493 1494 1496
1436 1435 1435 1436 1436 1437 1439 1440 1441 1442 1442 1443 1444 1445 1446 1447 1450 1452 1454 1455 1456 1458 1461 1463 1465 1467 1469 1471 1472 1474 1475 1477 1477 1478 1480 1481 1481 1482 1483 1484 1486 1487 1489
1432 1431 1431 1432 1432 1432 1433 1435 1437 1437 1437 1438 1439 1440 1441 1442 1444 1446 1448 1449 1450 1451 1454 1457 1459 1460 1462 1464 1465 1467 1468 1470 1470 1471 1473 1475 1475 1476 1476 1477 1479 1481 1482